EO-88
1 42017U 17008BX 17146.55478756 .00001912 00000-0 84640-4 0 9995
2 42017 097.4969 208.0519 0005102 305.4391 054.6368 15.22884663015191
SOMP2
1 42700U 98067LH 17146.24099712 .00009256 00000-0 14175-3 0 9999
2 42700 051.6394 147.6262 0005235 254.8246 174.5572 15.55111160001533
HAVELSAT
1 42701U 98067LJ 17146.31642381 .00009020 00000-0 13835-3 0 9995
2 42701 051.6401 147.2493 0005571 239.9072 251.8913 15.55105705001524
Columbia
1 42702U 98067LK 17146.31563003 .00016324 00000-0 24342-3 0 9999
2 42702 051.6411 147.2500 0005131 240.7681 247.5549 15.55218209001456
PHOENIX
1 42706U 98067LP 17146.30862670 .00009420 00000-0 14424-3 0 9993
2 42706 051.6413 147.2969 0001591 208.7387 236.7375 15.55095288001440
X-CubeSat
1 42707U 98067LQ 17146.31691506 .00009066 00000-0 13920-3 0 9999
2 42707 051.6390 147.2573 0001089 164.9070 326.2930 15.55073688001431
qbee
1 42708U 98067LR 17146.30898514 .00009426 00000-0 14453-3 0 9999
2 42708 051.6402 147.2976 0000831 204.2355 241.8411 15.55055890001397
ZA-AeroSat
1 42713U 98067LU 17146.31006494 .00008579 00000-0 13260-3 0 9997
2 42713 051.6397 147.3145 0004307 234.4992 210.7788 15.54970279001106
LINK
1 42714U 98067LV 17146.31040925 .00009925 00000-0 15285-3 0 9990
2 42714 051.6383 147.3129 0002259 162.7260 282.6338 15.54867338001211
UPSat
1 42716U 98067LX 17146.31796131 .00010815 00000-0 16507-3 0 9997
2 42716 051.6405 147.2701 0003436 245.0525 245.4715 15.55003598001239
SpaceCube
1 42717U 98067LY 17146.31848382 .00008939 00000-0 13805-3 0 9996
2 42717 051.6359 147.2556 0000740 028.2884 103.8507 15.54930526000470
Hoopoe
1 42718U 98067LZ 17146.30953725 .00010024 00000-0 15368-3 0 9998
2 42718 051.6386 147.3131 0003987 247.9870 194.4663 15.54975590000471
UNSW-EC0
1 42721U 98067MA 17145.48097229 -.00036282 00000-0 -53230-3 0 9994
2 42721 051.6379 151.4984 0007691 206.9345 250.6078 15.54646874000045
NJUST-1
1 42722U 98067MB 17145.60917919 -.00052252 00000-0 -77228-3 0 9994
2 42722 051.6516 150.8315 0007059 213.3724 242.1736 15.54620085000066
Challenger
1 42723U 98067MC 17146.18459052 .00005483 00000-0 88247-4 0 9994
2 42723 051.6351 147.9707 0007494 221.2958 216.8812 15.54676027000134
DUTHsat
1 42724U 98067MD 17146.51785720 -.00104458 00000-0 -15699-2 0 9999
2 42724 051.6401 146.3227 0006014 226.3323 277.4960 15.54478796000118
LilacSat-1
1 42725U 98067ME 17146.45007944 .00009561 00000-0 14864-3 0 9999
2 42725 051.6378 146.6650 0001131 262.8784 221.3485 15.54656197000108
nSIGHT1
1 42726U 98067MF 17146.44397074 -.00070558 00000-0 -10488-2 0 9998
2 42726 051.6365 146.7018 0004925 272.9823 176.9782 15.54609789000104
/EX
1
0
The following is an update on "who is who" for the May 25th and 26th, 2017
QB50 cubesat deployment from the International Space Station (ISS). Six of
the satellites deployed are QB50 satellites. Therefore, I have re-issued the
AMSAT-NA KEPs for this week. The satellite names and the NORAD Cat IDs per
SpaceTrack are as follows:
UNSW-EC0 Cat ID 42721 (Note:The last character is a "zero" per QB50
website.)
NJUST-1 Cat ID 42722
Challenger Cat ID 42723
DUTHsat Cat ID 42724
LilacSat-1 Cat ID 42725
nSIGHT1 Cat ID 42726
This is what SpaceTrack shows now. There is always the possiblity that we
will need to change something.
1
0
The following is an update on "who is who" for the May 17th and 18th, 2017
QB50 cubesat deployment from the International Space Station (ISS). Eleven
of the satellites deployed are QB50 satellites. Not all satellites deployed
are QB50 cubesats with amateur radio capability. The satellite names and the
NORAD Cat IDs per SpaceTrack are as follows:
SOMP 2 Cat ID 42700
HAVELSAT Cat ID 42701
Columbia Cat ID 42702
PHOENIX Cat ID 42706
X-CubeSat Cat ID 42707
qbee Cat ID 42708
ZA-AeroSat 1 Cat ID 42713
LINK Cat ID 42714
UPSat Cat ID 42716
SpaceCube Cat ID 42717
Hoopoe Cat ID 42718
This is what SpaceTrack shows now. There is always the possiblity that we
will need to change something.
LilacSat-1 was deployed today (Thursday, May 25,2017 at 08:45 GMT) from ISS.
It is too close to the ISS to be assigned an object ID. Here are the TLEs
(based on ISS TLEs) from the LilacSat website:
http://lilacsat.hit.edu.cn/?page_id=594
LilacSat-1
1 25544U 98067A 17144.89781703 .00001573 00000-0 31242-4 0 9992
2 25544 51.6416 154.3996 0005308 189.3117 243.1127 15.53923882 58131
Note: The Catalog Number is not real.
1
0
SB KEPS @ AMSAT $ORB17145.N
2Line Orbital Elements 17145.AMSAT
HR AMSAT ORBITAL ELEMENTS FOR AMATEUR SATELLITES IN NASA FORMAT
FROM WA5QGD FORT WORTH,TX May 25, 2017
BID: ORB17145.N
DECODE 2-LINE ELSETS WITH THE FOLLOWING KEY:
1 AAAAAU 00 0 0 BBBBB.BBBBBBBB .CCCCCCCC 00000-0 00000-0 0 DDDZ
2 AAAAA EEE.EEEE FFF.FFFF GGGGGGG HHH.HHHH III.IIII JJ.JJJJJJJJKKKKKZ
KEY: A-CATALOGNUM B-EPOCHTIME C-DECAY D-ELSETNUM E-INCLINATION F-RAAN
G-ECCENTRICITY H-ARGPERIGEE I-MNANOM J-MNMOTION K-ORBITNUM Z-CHECKSUM
TO ALL RADIO AMATEURS BT
AO-07
1 07530U 74089B 17145.50417642 -.00000048 00000-0 -25964-4 0 9994
2 07530 101.6285 114.6372 0012226 008.4767 102.1139 12.53627091946012
UO-11
1 14781U 84021B 17145.56285974 .00000120 00000-0 21134-4 0 9998
2 14781 097.6993 192.1090 0006980 274.7207 085.3210 14.82894369765999
LO-19
1 20442U 90005G 17145.30953190 -.00000005 00000-0 14110-4 0 9991
2 20442 098.5748 082.0574 0011060 210.7494 149.3043 14.32859904428289
HUBBLE
1 20580U 90037B 17145.44488822 .00000583 00000-0 25009-4 0 9998
2 20580 028.4702 157.8003 0002506 283.6122 076.4183 15.08768591286848
MET-2/21
1 22782U 93055A 17145.33301036 .00000012 00000-0 -26874-5 0 9996
2 22782 082.5507 041.7250 0023270 132.7438 005.7757 13.83801945198530
AO-27
1 22825U 93061C 17145.45246810 -.00000011 00000-0 13412-4 0 9994
2 22825 098.8104 110.7567 0009205 043.4814 316.7092 14.29996364233883
IO-26
1 22826U 93061D 17145.48874028 -.00000008 00000-0 14588-4 0 9997
2 22826 098.8045 110.8781 0009587 034.3286 325.8514 14.30325029234081
FO-29
1 24278U 96046B 17145.61136470 -.00000037 00000-0 -21398-5 0 9994
2 24278 098.5673 031.8696 0351080 036.0427 326.3844 13.53076355025572
NOAA-15
1 25338U 98030A 17145.61834007 .00000065 00000-0 46415-4 0 9993
2 25338 098.7823 156.4837 0009370 272.5067 087.5040 14.25793973989529
GO-32
1 25397U 98043D 17145.42313861 -.00000016 00000-0 12041-4 0 9996
2 25397 098.6087 088.2415 0002411 076.4659 283.6788 14.23622150980330
ISS
1 25544U 98067A 17145.55443664 .00001584 00000-0 31400-4 0 9995
2 25544 051.6416 151.1276 0005248 190.8247 317.2527 15.53926869058237
NO-44
1 26931U 01043C 17145.45416396 -.00000018 00000-0 24769-4 0 9997
2 26931 067.0495 149.8508 0008053 268.8588 091.1590 14.30460831817090
SO-50
1 27607U 02058C 17145.56625917 .00000023 00000-0 23790-4 0 9996
2 27607 064.5548 194.6874 0030279 108.3525 252.0875 14.75324386775641
CO-55
1 27844U 03031E 17145.55962214 .00000060 00000-0 46681-4 0 9999
2 27844 098.6897 154.8954 0010800 057.2674 302.9543 14.22037424721061
CO-57
1 27848U 03031J 17145.55326298 .00000050 00000-0 42742-4 0 9992
2 27848 098.6990 155.1385 0010798 065.7179 294.5125 14.21652017720950
RS-22
1 27939U 03042A 17145.59323125 .00000129 00000-0 31703-4 0 9997
2 27939 097.9359 291.0664 0011713 301.1341 123.3885 14.66563082729861
NOAA-18
1 28654U 05018A 17145.59709078 -.00000014 00000-0 17968-4 0 9993
2 28654 099.1836 167.2581 0015203 132.5258 227.7199 14.12337669618970
